Year,Month,Day,Hour,Minute,Value (Times are PST for temperature in C)
2021,04,02,12,03,9.70
2021,04,02,12,04,9.70
2021,04,02,12,05,9.70
2021,04,02,12,06,9.80
2021,04,02,12,07,9.90
2021,04,02,12,08,9.90
2021,04,02,12,09,9.90
2021,04,02,12,10,9.90
2021,04,02,12,11,10.00
2021,04,02,12,12,10.10
2021,04,02,12,13,10.10
2021,04,02,12,14,10.10
2021,04,02,12,15,10.10
2021,04,02,12,16,10.10
2021,04,02,12,17,10.10
2021,04,02,12,18,10.10
2021,04,02,12,19,10.10
2021,04,02,12,20,10.10
2021,04,02,12,21,10.20
2021,04,02,12,22,10.20
2021,04,02,12,23,10.30
2021,04,02,12,24,10.30
2021,04,02,12,25,10.30
2021,04,02,12,26,10.20
2021,04,02,12,27,10.20
2021,04,02,12,28,10.10
2021,04,02,12,29,10.10
2021,04,02,12,30,10.10
2021,04,02,12,31,10.10
2021,04,02,12,32,10.10
2021,04,02,12,33,10.10
2021,04,02,12,34,10.10
2021,04,02,12,35,10.10
2021,04,02,12,36,10.10
2021,04,02,12,37,10.10
2021,04,02,12,38,10.10
2021,04,02,12,39,10.10
2021,04,02,12,40,10.10
2021,04,02,12,41,10.10
2021,04,02,12,42,10.10
2021,04,02,12,43,10.20
2021,04,02,12,44,10.20
2021,04,02,12,45,10.20
2021,04,02,12,46,10.20
2021,04,02,12,47,10.20
2021,04,02,12,48,10.30
2021,04,02,12,49,10.30
2021,04,02,12,50,10.40
2021,04,02,12,51,10.40
2021,04,02,12,52,10.40
2021,04,02,12,53,10.40
2021,04,02,12,54,10.40
2021,04,02,12,55,10.40
2021,04,02,12,56,10.40
2021,04,02,12,57,10.40
2021,04,02,12,58,10.40
2021,04,02,12,59,10.40
2021,04,02,13,00,10.50
2021,04,02,13,01,10.60
2021,04,02,13,02,10.60
2021,04,02,13,03,10.60
2021,04,02,13,04,10.60
2021,04,02,13,05,10.60
2021,04,02,13,06,10.60
2021,04,02,13,07,10.60
2021,04,02,13,08,10.60
2021,04,02,13,09,10.60
2021,04,02,13,10,10.60
2021,04,02,13,11,10.60
2021,04,02,13,12,10.60
2021,04,02,13,13,10.60
2021,04,02,13,14,10.70
2021,04,02,13,15,10.70
2021,04,02,13,16,10.70
2021,04,02,13,17,10.70
2021,04,02,13,18,10.70
2021,04,02,13,19,10.70
2021,04,02,13,20,10.70
2021,04,02,13,21,10.70
2021,04,02,13,22,10.80
2021,04,02,13,23,10.90
2021,04,02,13,24,10.90
2021,04,02,13,25,10.90
2021,04,02,13,26,10.90
2021,04,02,13,27,11.00
2021,04,02,13,28,11.10
2021,04,02,13,29,10.90
2021,04,02,13,30,10.90
2021,04,02,13,31,10.80
2021,04,02,13,32,10.70
2021,04,02,13,33,10.60
2021,04,02,13,34,10.50
2021,04,02,13,35,10.30
2021,04,02,13,36,10.20
2021,04,02,13,37,10.20
2021,04,02,13,38,10.30
2021,04,02,13,39,10.30
2021,04,02,13,40,10.20
2021,04,02,13,41,10.20
2021,04,02,13,42,10.20
2021,04,02,13,43,10.30
2021,04,02,13,44,10.40
2021,04,02,13,45,10.40
2021,04,02,13,46,10.40
2021,04,02,13,47,10.40
2021,04,02,13,48,10.30
2021,04,02,13,49,10.10
2021,04,02,13,50,10.10
2021,04,02,13,51,10.00
2021,04,02,13,52,9.90
2021,04,02,13,53,9.90
2021,04,02,13,54,10.00
2021,04,02,13,55,10.10
2021,04,02,13,56,10.30
2021,04,02,13,57,10.30
2021,04,02,13,58,10.10
2021,04,02,13,59,10.10
2021,04,02,14,00,10.10
2021,04,02,14,01,10.20
2021,04,02,14,02,10.20
2021,04,02,14,03,10.10
2021,04,02,14,04,10.00
2021,04,02,14,05,9.90
2021,04,02,14,06,9.90
2021,04,02,14,07,10.10
2021,04,02,14,08,10.10
2021,04,02,14,09,10.10
2021,04,02,14,10,10.00
2021,04,02,14,11,9.90
2021,04,02,14,12,9.90
2021,04,02,14,13,9.90
2021,04,02,14,14,9.90
2021,04,02,14,15,9.90
2021,04,02,14,16,9.90
2021,04,02,14,17,9.90
2021,04,02,14,18,9.80
2021,04,02,14,19,9.70
2021,04,02,14,20,9.60
2021,04,02,14,21,9.50
2021,04,02,14,22,9.40
2021,04,02,14,23,9.40
2021,04,02,14,24,9.50
2021,04,02,14,25,9.50
2021,04,02,14,26,9.60
2021,04,02,14,27,9.70
2021,04,02,14,28,9.80
2021,04,02,14,29,9.70
2021,04,02,14,30,9.70
2021,04,02,14,31,9.60
2021,04,02,14,32,9.50
2021,04,02,14,33,9.50
2021,04,02,14,34,9.60
2021,04,02,14,35,9.60
2021,04,02,14,36,9.60
2021,04,02,14,37,9.50
2021,04,02,14,38,9.40
2021,04,02,14,39,9.30
2021,04,02,14,40,9.30
2021,04,02,14,41,9.30
2021,04,02,14,42,9.30
2021,04,02,14,43,9.30
2021,04,02,14,44,9.40
2021,04,02,14,45,9.40
2021,04,02,14,46,9.50
2021,04,02,14,47,9.50
2021,04,02,14,48,9.50
2021,04,02,14,49,9.50
2021,04,02,14,50,9.50
2021,04,02,14,51,9.50
2021,04,02,14,52,9.50
2021,04,02,14,53,9.50
2021,04,02,14,54,9.50
2021,04,02,14,55,9.50
2021,04,02,14,56,9.40
2021,04,02,14,57,9.30
2021,04,02,14,58,9.30
2021,04,02,14,59,9.30
2021,04,02,15,00,9.30
2021,04,02,15,01,9.40
2021,04,02,15,02,9.40
2021,04,02,15,03,9.40
2021,04,02,15,04,9.40
2021,04,02,15,05,9.40
2021,04,02,15,06,9.30
2021,04,02,15,07,9.30
2021,04,02,15,08,9.40
2021,04,02,15,09,9.40
2021,04,02,15,10,9.40
2021,04,02,15,11,9.30
2021,04,02,15,12,9.30
2021,04,02,15,13,9.40
2021,04,02,15,14,9.40
2021,04,02,15,15,9.40
2021,04,02,15,16,9.50
2021,04,02,15,17,9.50
2021,04,02,15,18,9.50
2021,04,02,15,19,9.50
2021,04,02,15,20,9.60
2021,04,02,15,21,9.50
2021,04,02,15,22,9.60
2021,04,02,15,23,9.60
2021,04,02,15,24,9.70
2021,04,02,15,25,9.60
2021,04,02,15,26,9.60
2021,04,02,15,27,9.60
2021,04,02,15,28,9.60
2021,04,02,15,29,9.60
2021,04,02,15,30,9.50
2021,04,02,15,31,9.50
2021,04,02,15,32,9.50
2021,04,02,15,33,9.60
2021,04,02,15,34,9.60
2021,04,02,15,35,9.70
2021,04,02,15,36,9.60
2021,04,02,15,37,9.50
2021,04,02,15,38,9.40
2021,04,02,15,39,9.30
2021,04,02,15,40,9.30
2021,04,02,15,41,9.40
2021,04,02,15,42,9.40
2021,04,02,15,43,9.40
2021,04,02,15,44,9.40
2021,04,02,15,45,9.40
2021,04,02,15,46,9.50
2021,04,02,15,47,9.60
2021,04,02,15,48,9.50
2021,04,02,15,49,9.50
2021,04,02,15,50,9.50
2021,04,02,15,51,9.40
2021,04,02,15,52,9.30
2021,04,02,15,53,9.30
2021,04,02,15,54,9.30
2021,04,02,15,55,9.30
2021,04,02,15,56,9.30
2021,04,02,15,57,9.20
2021,04,02,15,58,9.20
2021,04,02,15,59,9.30
2021,04,02,16,00,9.30
2021,04,02,16,01,9.30
2021,04,02,16,02,9.30
2021,04,02,16,03,9.20
2021,04,02,16,04,9.20
2021,04,02,16,05,9.20
2021,04,02,16,06,9.10
2021,04,02,16,07,9.10
2021,04,02,16,08,9.10
2021,04,02,16,09,9.10
2021,04,02,16,10,9.10
2021,04,02,16,11,9.10
2021,04,02,16,12,9.10
2021,04,02,16,13,9.00
2021,04,02,16,14,9.10
2021,04,02,16,15,9.10
2021,04,02,16,16,9.10
2021,04,02,16,17,9.10
2021,04,02,16,18,9.10
2021,04,02,16,19,9.10
2021,04,02,16,20,9.00
2021,04,02,16,21,9.00
2021,04,02,16,22,9.00
2021,04,02,16,23,9.00
2021,04,02,16,24,9.00
2021,04,02,16,25,9.00
2021,04,02,16,26,9.10
2021,04,02,16,27,9.10
2021,04,02,16,28,9.10
2021,04,02,16,29,9.10
2021,04,02,16,30,9.10
2021,04,02,16,31,9.10
2021,04,02,16,32,9.10
2021,04,02,16,33,9.10
2021,04,02,16,34,9.20
2021,04,02,16,35,9.10
2021,04,02,16,36,9.10
2021,04,02,16,37,9.20
2021,04,02,16,38,9.20
2021,04,02,16,39,9.20
2021,04,02,16,40,9.20
2021,04,02,16,41,9.20
2021,04,02,16,42,9.20
2021,04,02,16,43,9.30
2021,04,02,16,44,9.40
2021,04,02,16,45,9.40
2021,04,02,16,46,9.40
2021,04,02,16,47,9.40
2021,04,02,16,48,9.40
2021,04,02,16,49,9.40
2021,04,02,16,50,9.50
2021,04,02,16,51,9.60
2021,04,02,16,52,9.60
2021,04,02,16,53,9.70
2021,04,02,16,54,9.70
2021,04,02,16,55,9.60
2021,04,02,16,56,9.50
2021,04,02,16,57,9.40
2021,04,02,16,58,9.40
2021,04,02,16,59,9.40
2021,04,02,17,00,9.40
2021,04,02,17,01,9.30
2021,04,02,17,02,9.30
2021,04,02,17,03,9.30
2021,04,02,17,04,9.40
2021,04,02,17,05,9.50
2021,04,02,17,06,9.50
2021,04,02,17,07,9.60
2021,04,02,17,08,9.70
2021,04,02,17,09,9.80
2021,04,02,17,10,9.80
2021,04,02,17,11,10.00
2021,04,02,17,12,10.10
2021,04,02,17,13,10.10
2021,04,02,17,14,10.20
2021,04,02,17,15,10.20
2021,04,02,17,16,10.20
2021,04,02,17,17,10.20
2021,04,02,17,18,10.20
2021,04,02,17,19,10.20
2021,04,02,17,20,10.20
2021,04,02,17,21,10.20
2021,04,02,17,22,10.20
2021,04,02,17,23,10.30
2021,04,02,17,24,10.30
2021,04,02,17,25,10.30
2021,04,02,17,26,10.30
2021,04,02,17,27,10.40
2021,04,02,17,28,10.40
2021,04,02,17,29,10.40
2021,04,02,17,30,10.40
2021,04,02,17,31,10.40
2021,04,02,17,32,10.40
2021,04,02,17,33,10.40
2021,04,02,17,34,10.40
2021,04,02,17,35,10.40
2021,04,02,17,36,10.30
2021,04,02,17,37,10.30
2021,04,02,17,38,10.30
2021,04,02,17,39,10.30
2021,04,02,17,40,10.30
2021,04,02,17,41,10.40
2021,04,02,17,42,10.40
2021,04,02,17,43,10.40
2021,04,02,17,44,10.40
2021,04,02,17,45,10.40
2021,04,02,17,46,10.60
2021,04,02,17,47,10.60
2021,04,02,17,48,10.60
2021,04,02,17,49,10.60
2021,04,02,17,50,10.60
2021,04,02,17,51,10.60
2021,04,02,17,52,10.60
2021,04,02,17,53,10.60
2021,04,02,17,54,10.60
2021,04,02,17,55,10.60
2021,04,02,17,56,10.60
2021,04,02,17,57,10.60
2021,04,02,17,58,10.60
2021,04,02,17,59,10.60
2021,04,02,18,00,10.70
2021,04,02,18,01,10.70
2021,04,02,18,02,10.70
2021,04,02,18,03,10.70
2021,04,02,18,04,10.70
2021,04,02,18,05,10.70
2021,04,02,18,06,10.70
2021,04,02,18,07,10.70
2021,04,02,18,08,10.60
2021,04,02,18,09,10.60
2021,04,02,18,10,10.60
2021,04,02,18,11,10.60
2021,04,02,18,12,10.60
2021,04,02,18,13,10.60
2021,04,02,18,14,10.60
2021,04,02,18,15,10.50
2021,04,02,18,16,10.40
2021,04,02,18,17,10.40
2021,04,02,18,18,10.40
2021,04,02,18,19,10.30
2021,04,02,18,20,10.30
2021,04,02,18,21,10.30
2021,04,02,18,22,10.30
2021,04,02,18,23,10.20
2021,04,02,18,24,10.20
2021,04,02,18,25,10.20
2021,04,02,18,26,10.20
2021,04,02,18,27,10.20
2021,04,02,18,28,10.20
2021,04,02,18,29,10.20
2021,04,02,18,30,10.20
2021,04,02,18,31,10.20
2021,04,02,18,32,10.20
2021,04,02,18,33,10.20
2021,04,02,18,34,10.20
2021,04,02,18,35,10.20
2021,04,02,18,36,10.20
2021,04,02,18,37,10.20
2021,04,02,18,38,10.20
